Location: Bridgewater
(44.3670°N, 64.5170°W)
Time: 06:21:56
(UTC-03:00)

Amateur Radio Satellites - All Passes

Search period start: 26 March 2017 05:51
Search period end: 27 March 2017 05:51
Location: Bridgewater, 44.3670°N, 64.5170°W

Satellite Date Start Highest point End Downlink Frequencies (MHz)
Time Altitude Azimuth
CUBESAT XI-V 26 Mar 06:00:59 06:05:01 30° 265° (W) 06:09:04 437.345
M-CUBED/EXP-1 PRIME 26 Mar 06:08:52 06:12:27 50° 66° (ENE) 06:16:22 437.505
YUBILEINY 26 Mar 06:26:03 06:28:14 11° 70° (ENE) 06:30:25 435.215
XW-2D 26 Mar 06:33:09 06:35:25 15° 92° (E) 06:37:39 145.860 - 145.880
NUDT-PHONESAT 26 Mar 06:35:34 06:37:08 12° 90° (E) 06:38:42 437.300
STRAND 1 26 Mar 06:37:32 06:41:24 22° 62° (ENE) 06:45:16 437.568
XW-2B 26 Mar 06:38:51 06:41:23 17° 92° (E) 06:43:54 145.730 - 145.750
KAITUO 1B 26 Mar 06:41:31 06:43:41 15° 92° (E) 06:45:49 145.475/437.950
BEESAT 3 26 Mar 06:44:11 06:47:07 19° 40° (NE) 06:50:02 437.485
DOVE 4 26 Mar 06:47:38 06:52:36 38° 96° (E) 06:57:28 437.250
XW-2C 26 Mar 06:48:38 06:51:38 22° 94° (E) 06:54:37 145.795 - 145.815
AO-7 26 Mar 06:52:30 06:59:29 32° 305° (NW) 07:06:28 .
BEESAT 2 26 Mar 06:58:55 07:01:00 14° 35° (NE) 07:03:05 435.950
CUTE-I 26 Mar 07:09:55 07:14:55 38° 97° (E) 07:19:51 437.470
AO-85 26 Mar 07:17:41 07:21:06 28° 244° (WSW) 07:24:36 145.980
NO-84 26 Mar 07:22:42 07:25:02 23° 133° (SE) 07:27:22 435.350 FM
HO-68 26 Mar 07:39:05 07:44:09 20° 90° (E) 07:49:11 435.675
XW-2F 26 Mar 07:40:29 07:44:15 87° 277° (W) 07:47:58 145.980 - 146.000
LilacSat-2 26 Mar 07:40:48 07:44:35 79° 283° (WNW) 07:48:20 437.200
M-CUBED/EXP-1 PRIME 26 Mar 07:45:26 07:47:18 13° 266° (W) 07:49:15 437.505
XW-2D 26 Mar 08:06:17 08:09:48 39° 288° (WNW) 08:13:17 145.860 - 145.880
CUBEBUG 2 26 Mar 08:07:25 08:08:29 11° 87° (E) 08:09:32 437.445
NUDT-PHONESAT 26 Mar 08:07:47 08:11:20 47° 287° (WNW) 08:14:51 437.300
XW-2B 26 Mar 08:12:16 08:15:42 34° 289° (WNW) 08:19:07 145.730 - 145.750
KAITUO 1B 26 Mar 08:14:25 08:17:53 39° 288° (WNW) 08:21:20 145.475/437.950
YUBILEINY 26 Mar 08:14:32 08:23:04 61° 92° (E) 08:31:36 435.215
STRAND 1 26 Mar 08:15:09 08:20:12 54° 260° (W) 08:25:16 437.568
BEESAT 3 26 Mar 08:21:06 08:25:04 58° 239° (WSW) 08:28:59 437.485
XW-2C 26 Mar 08:22:38 08:25:48 26° 291° (WNW) 08:28:58 145.795 - 145.815
SEEDS 26 Mar 08:22:52 08:26:12 22° 94° (E) 08:29:31 437.485
DOVE 4 26 Mar 08:25:30 08:30:07 31° 294° (WNW) 08:34:41 437.250
CUTE 1.7 + AOD 2 26 Mar 08:28:15 08:32:12 38° 98° (E) 08:36:09 437.475
XW-2A 26 Mar 08:28:17 08:31:35 46° 99° (E) 08:34:50 145.665 - 145.685
BEESAT 2 26 Mar 08:35:21 08:39:27 81° 55° (NE) 08:43:29 435.950
CUTE-I 26 Mar 08:50:10 08:54:50 31° 295° (WNW) 08:59:28 437.470
TIGRISAT 26 Mar 08:59:40 09:00:52 11° 58° (ENE) 09:02:03 435.000
NO-84 26 Mar 08:59:50 09:02:27 32° 331° (NNW) 09:05:06 435.350 FM
FO-29 26 Mar 09:02:45 09:07:25 18° 55° (NE) 09:11:55 435.910
UNISAT 6 26 Mar 09:08:14 09:10:43 14° 61° (ENE) 09:13:12 437.425
UWE-3 26 Mar 09:08:56 09:12:46 30° 95° (E) 09:16:29 435.000/436.395/437.385
HO-68 26 Mar 09:25:27 09:32:38 80° 289° (WNW) 09:39:48 435.675
CUBEBUG 2 26 Mar 09:41:14 09:45:42 75° 285° (WNW) 09:49:58 437.445
AAUSAT CUBESAT 2 26 Mar 09:43:40 09:47:49 86° 97° (E) 09:51:59 437.432
Oscar 11 26 Mar 09:44:10 09:48:04 33° 96° (E) 09:51:57 .
ZACube-1 26 Mar 09:50:37 09:54:45 49° 98° (E) 09:58:47 437.345
PCSat 26 Mar 09:56:38 10:01:26 34° 111° (ESE) 10:06:17 145.827
SEEDS 26 Mar 09:58:11 10:01:56 33° 290° (WNW) 10:05:42 437.485
PRISM 26 Mar 10:02:14 10:06:18 89° 76° (ENE) 10:10:25 437.425
XW-2A 26 Mar 10:02:47 10:03:56 11° 296° (WNW) 10:05:05 145.665 - 145.685
CUTE 1.7 + AOD 2 26 Mar 10:04:40 10:07:48 20° 294° (WNW) 10:10:54 437.475
YUBILEINY 26 Mar 10:12:49 10:20:24 32° 293° (WNW) 10:28:02 435.215
BEESAT 2 26 Mar 10:15:51 10:16:35 10° 252° (WSW) 10:17:19 435.950
AO-73 26 Mar 10:19:15 10:23:31 87° 281° (W) 10:27:39 145.935
TIGRISAT 26 Mar 10:32:05 10:36:47 83° 76° (ENE) 10:41:28 435.000
NO-84 26 Mar 10:39:31 10:40:44 12° 352° (N) 10:41:58 435.350 FM
UNISAT 6 26 Mar 10:42:09 10:46:51 74° 258° (WSW) 10:51:32 437.425
FO-29 26 Mar 10:43:36 10:51:24 74° 73° (ENE) 10:58:43 435.910
UWE-3 26 Mar 10:45:31 10:49:08 26° 293° (WNW) 10:52:38 435.000/436.395/437.385
DELFI C3 26 Mar 11:06:59 11:11:00 85° 105° (ESE) 11:14:59 145.870
AIST 2D 26 Mar 11:08:04 11:11:02 25° 69° (ENE) 11:13:59 435.315
NANOSAT C BR1 26 Mar 11:14:17 11:17:26 20° 65° (ENE) 11:20:37 145.865
HO-68 26 Mar 11:14:46 11:19:17 18° 309° (NW) 11:23:49 435.675
LO-87 26 Mar 11:16:37 11:18:03 12° 90° (E) 11:19:28 145.935 - 145.965
EO-79 26 Mar 11:18:16 11:21:43 24° 66° (ENE) 11:25:10 145.935-145.965
Oscar 11 26 Mar 11:20:35 11:24:03 24° 293° (WNW) 11:27:31 .
ZACube-1 26 Mar 11:27:57 11:30:39 17° 297° (WNW) 11:33:18 437.345
RS-15 26 Mar 11:35:15 11:42:38 19° 96° (E) 11:50:08 29.354- 29.394
PCSat 26 Mar 11:39:38 11:44:44 40° 310° (NW) 11:49:53 145.827
POLYITAN 1 26 Mar 11:45:30 11:49:36 46° 71° (ENE) 11:53:43 437.675
QB50P2 26 Mar 11:50:00 11:54:11 55° 73° (ENE) 11:58:23 145.880/145.840
ESTCUBE 1 26 Mar 11:59:32 12:03:05 22° 94° (E) 12:06:37 437.505/2401.250
DUCHIFAT 1 26 Mar 12:02:44 12:06:54 58° 73° (ENE) 12:11:07 145.980
TIGRISAT 26 Mar 12:12:38 12:14:01 11° 272° (W) 12:15:25 435.000
NO-84 26 Mar 12:17:38 12:19:20 14° 14° (NNE) 12:21:05 435.350 FM
BUGSAT 1 26 Mar 12:20:41 12:24:26 32° 69° (ENE) 12:28:15 437.445
SPROUT 26 Mar 12:26:20 12:27:21 11° 88° (E) 12:28:22 437.525
FO-29 26 Mar 12:30:46 12:36:53 25° 269° (W) 12:42:48 435.910
AIST 2D 26 Mar 12:41:30 12:44:13 21° 266° (W) 12:46:58 435.315
LO-87 26 Mar 12:48:14 12:51:47 48° 287° (WNW) 12:55:18 145.935 - 145.965
NANOSAT C BR1 26 Mar 12:48:53 12:52:54 40° 262° (W) 12:56:56 145.865
EO-79 26 Mar 12:53:26 12:57:19 33° 263° (W) 13:01:13 145.935-145.965
VELOX 1 26 Mar 13:13:03 13:17:16 39° 98° (E) 13:21:27 145.980
Oscar 19 26 Mar 13:19:02 13:23:52 44° 69° (ENE) 13:28:43 437.125/150
POLYITAN 1 26 Mar 13:22:45 13:25:37 17° 268° (W) 13:28:29 437.675
QB50P2 26 Mar 13:27:57 13:30:19 14° 269° (W) 13:32:42 145.880/145.840
PCSat 26 Mar 13:28:20 13:29:42 11° 333° (NNW) 13:31:04 145.827
Gurwin Techsat 1B 26 Mar 13:31:12 13:35:57 34° 66° (ENE) 13:40:44 435.225
UKube-1 26 Mar 13:32:41 13:35:47 19° 93° (E) 13:38:51 .
ESTCUBE 1 26 Mar 13:35:49 13:40:00 38° 291° (WNW) 13:44:11 437.505/2401.250
DUCHIFAT 1 26 Mar 13:40:48 13:42:57 14° 270° (W) 13:45:06 145.980
RS-15 26 Mar 13:40:54 13:52:50 74° 118° (ESE) 14:05:09 29.354- 29.394
50 SAT 26 Mar 13:45:47 13:49:16 59° 101° (ESE) 13:52:44 437.505
NO-84 26 Mar 13:54:25 13:57:26 47° 33° (NNE) 14:00:43 435.350 FM
BUGSAT 1 26 Mar 13:56:21 13:59:49 24° 266° (W) 14:03:20 437.445
SPROUT 26 Mar 13:59:28 14:03:46 74° 285° (WNW) 14:08:01 437.525
AO-7 26 Mar 14:09:21 14:15:55 27° 52° (NE) 14:22:27 .
SO-50 26 Mar 14:15:29 14:15:52 10° 107° (ESE) 14:16:16 436.795
DX 1 26 Mar 14:27:04 14:31:29 83° 287° (WNW) 14:35:53 434.975-435.025
VELOX 1 26 Mar 14:50:01 14:53:29 23° 295° (WNW) 14:56:56 145.980
Oscar 19 26 Mar 14:59:14 15:03:22 24° 266° (W) 15:07:31 437.125/150
ITAMSAT 1 26 Mar 15:05:19 15:10:15 43° 68° (ENE) 15:15:11 435.822/435.867
UKube-1 26 Mar 15:07:53 15:11:59 43° 290° (WNW) 15:16:05 .
BEESAT 26 Mar 15:08:33 15:11:30 16° 91° (E) 15:14:26 436.000
Gurwin Techsat 1B 26 Mar 15:11:05 15:15:52 34° 264° (W) 15:20:42 435.225
50 SAT 26 Mar 15:21:17 15:21:49 10° 298° (WNW) 15:22:21 437.505
ITUPSAT 1 26 Mar 15:24:03 15:27:46 22° 94° (E) 15:31:28 437.325
MOZHAYETS 4 26 Mar 15:29:27 15:29:56 10° 87° (E) 15:30:25
NO-84 26 Mar 15:32:20 15:34:51 20° 228° (SW) 15:37:30 435.350 FM
SO-50 26 Mar 15:50:56 15:55:35 83° 125° (SE) 16:00:12 436.795
RS-15 26 Mar 15:54:54 16:06:24 45° 325° (NW) 16:18:09 29.354- 29.394
AO-7 26 Mar 15:59:29 16:07:50 82° 251° (WSW) 16:16:13 .
BEESAT 26 Mar 16:44:59 16:49:40 59° 288° (WNW) 16:54:20 436.000
ITAMSAT 1 26 Mar 16:45:31 16:49:51 26° 266° (W) 16:54:12 435.822/435.867
KKS-1 26 Mar 16:46:51 16:49:21 15° 91° (E) 16:51:49 437.445
O/OREOS (USA 219) 26 Mar 16:52:14 16:55:40 22° 102° (ESE) 16:59:08 437.305
CUTE-I 26 Mar 16:57:33 16:59:24 12° 54° (NE) 17:01:15 437.470
PCSat 26 Mar 17:01:04 17:02:28 11° 27° (NNE) 17:03:51 145.827
ITUPSAT 1 26 Mar 17:01:17 17:05:46 42° 291° (WNW) 17:10:14 437.325
MOZHAYETS 4 26 Mar 17:03:07 17:07:41 84° 288° (WNW) 17:12:15
XW-2D 26 Mar 17:17:40 17:18:34 11° 62° (ENE) 17:19:27 145.860 - 145.880
XW-2B 26 Mar 17:22:58 17:24:27 12° 63° (ENE) 17:25:55 145.730 - 145.750
STARS 26 Mar 17:23:15 17:25:53 16° 91° (E) 17:28:32 437.465
XW-2C 26 Mar 17:32:15 17:34:32 15° 65° (ENE) 17:36:48 145.795 - 145.815
SO-50 26 Mar 17:33:24 17:36:37 18° 323° (NW) 17:39:49 436.795
DOVE 4 26 Mar 17:54:22 17:58:48 41° 69° (ENE) 18:03:30 437.250
CUBESAT XI-V 26 Mar 17:54:54 17:59:30 58° 101° (E) 18:04:06 437.345
AO-7 26 Mar 17:56:47 18:01:49 17° 272° (W) 18:06:51 .
HO-68 26 Mar 18:10:35 18:15:28 20° 53° (NE) 18:20:22 435.675
RS-15 26 Mar 18:12:58 18:23:12 28° 358° (N) 18:33:23 29.354- 29.394
KKS-1 26 Mar 18:21:51 18:26:17 59° 288° (WNW) 18:30:40 437.445
XW-2F 26 Mar 18:22:35 18:26:17 54° 74° (ENE) 18:29:59 145.980 - 146.000
YUBILEINY 26 Mar 18:22:49 18:30:29 33° 67° (ENE) 18:38:06 435.215
LilacSat-2 26 Mar 18:23:47 18:27:33 61° 75° (ENE) 18:31:20 437.200
O/OREOS (USA 219) 26 Mar 18:30:29 18:34:47 41° 300° (WNW) 18:39:08 437.305
CUTE-I 26 Mar 18:33:09 18:38:30 73° 73° (ENE) 18:43:53 437.470
PCSat 26 Mar 18:42:17 18:47:25 41° 50° (NE) 18:52:32 145.827
MOZHAYETS 4 26 Mar 18:43:13 18:44:05 10° 302° (WNW) 18:44:57
NUDT-PHONESAT 26 Mar 18:48:06 18:51:51 88° 258° (WSW) 18:55:37 437.300
XW-2D 26 Mar 18:48:25 18:52:13 68° 259° (W) 18:56:01 145.860 - 145.880
XW-2B 26 Mar 18:54:24 18:58:10 59° 259° (W) 19:01:55 145.730 - 145.750
KAITUO 1B 26 Mar 18:55:22 18:59:07 71° 259° (W) 19:02:52 145.475/437.950
STARS 26 Mar 18:58:14 19:02:34 54° 288° (WNW) 19:06:52 437.465
XW-2A 26 Mar 19:01:33 19:04:13 21° 68° (ENE) 19:06:55 145.665 - 145.685
XW-2C 26 Mar 19:04:44 19:08:23 43° 261° (W) 19:12:02 145.795 - 145.815
CUBEBUG 2 26 Mar 19:06:13 19:08:39 14° 61° (ENE) 19:11:04 437.445
SEEDS 26 Mar 19:16:23 19:19:24 20° 65° (ENE) 19:22:26 437.485
M-CUBED/EXP-1 PRIME 26 Mar 19:19:39 19:23:52 33° 102° (ESE) 19:28:04 437.505
CUTE 1.7 + AOD 2 26 Mar 19:22:20 19:26:06 33° 70° (ENE) 19:29:54 437.475
DOVE 4 26 Mar 19:32:54 19:36:40 23° 269° (W) 19:40:38 437.250
CUBESAT XI-V 26 Mar 19:33:25 19:36:26 17° 298° (WNW) 19:39:27 437.345
AO-73 26 Mar 19:43:35 19:44:29 11° 59° (ENE) 19:45:23 145.935
HO-68 26 Mar 19:55:06 20:02:16 89° 74° (ENE) 20:09:28 435.675
XW-2F 26 Mar 19:59:25 20:00:45 12° 270° (W) 20:02:05 145.980 - 146.000
LilacSat-2 26 Mar 20:01:31 20:02:13 10° 271° (W) 20:02:55 437.200
UWE-3 26 Mar 20:06:52 20:11:00 32° 69° (ENE) 20:15:05 435.000/436.395/437.385
CUTE-I 26 Mar 20:15:54 20:19:06 16° 270° (W) 20:22:18 437.470
YUBILEINY 26 Mar 20:19:17 20:27:47 60° 269° (W) 20:36:15 435.215
STRAND 1 26 Mar 20:23:55 20:28:50 45° 99° (E) 20:33:42 437.568
PCSat 26 Mar 20:25:53 20:30:44 33° 249° (WSW) 20:35:32 145.827
RS-15 26 Mar 20:28:38 20:40:12 42° 32° (NNE) 20:51:22 29.354- 29.394
XW-2A 26 Mar 20:34:03 20:36:53 24° 264° (W) 20:39:45 145.665 - 145.685
AAUSAT CUBESAT 2 26 Mar 20:34:55 20:38:59 68° 75° (ENE) 20:43:04 437.432
CUBEBUG 2 26 Mar 20:39:53 20:44:39 78° 258° (WSW) 20:49:24 437.445
Oscar 11 26 Mar 20:40:22 20:44:10 31° 69° (ENE) 20:48:00 .
Tancredo 1 26 Mar 20:44:02 20:46:11 17° 134° (SE) 20:48:21 437.200
ISS 26 Mar 20:44:19 20:46:23 16° 134° (SE) 20:48:28 437.550
ZACube-1 26 Mar 20:47:17 20:51:39 48° 72° (ENE) 20:55:58 437.345
SEEDS 26 Mar 20:50:57 20:54:50 39° 262° (W) 20:58:46 437.485
M-CUBED/EXP-1 PRIME 26 Mar 20:54:07 20:58:11 31° 298° (WNW) 21:02:17 437.505
CUTE 1.7 + AOD 2 26 Mar 20:58:41 21:02:00 22° 266° (W) 21:05:20 437.475
AO-73 26 Mar 21:15:28 21:20:00 86° 75° (ENE) 21:24:30 145.935
AO-85 26 Mar 21:32:43 21:37:01 53° 120° (ESE) 21:41:04 145.980
UWE-3 26 Mar 21:43:24 21:47:25 28° 265° (W) 21:51:26 435.000/436.395/437.385
PRISM 26 Mar 21:44:23 21:45:22 11° 89° (E) 21:46:20 437.425
HO-68 26 Mar 21:46:23 21:50:53 18° 271° (W) 21:55:25 435.675
DELFI C3 26 Mar 21:53:40 21:57:31 58° 73° (ENE) 22:01:24 145.870
STRAND 1 26 Mar 22:03:38 22:07:45 25° 297° (WNW) 22:11:49 437.568
BEESAT 3 26 Mar 22:13:54 22:16:05 14° 110° (ESE) 22:18:16 437.485
AAUSAT CUBESAT 2 26 Mar 22:13:56 22:14:54 11° 272° (W) 22:15:52 437.432
Oscar 11 26 Mar 22:16:44 22:20:19 25° 265° (W) 22:23:55 .
Tancredo 1 26 Mar 22:18:51 22:22:00 67° 331° (NNW) 22:25:11 437.200
ISS 26 Mar 22:19:14 22:22:29 74° 328° (NNW) 22:25:46 437.550
YUBILEINY 26 Mar 22:20:58 22:22:34 11° 290° (WNW) 22:24:10 435.215
TIGRISAT 26 Mar 22:23:34 22:26:05 15° 90° (E) 22:28:32 435.000
ZACube-1 26 Mar 22:25:02 22:28:10 18° 268° (W) 22:31:16 437.345
UNISAT 6 26 Mar 22:33:10 22:36:27 20° 92° (E) 22:39:41 437.425
SO-50 26 Mar 22:41:06 22:44:25 20° 38° (NE) 22:47:41 436.795
RS-15 26 Mar 22:41:43 22:54:02 81° 240° (WSW) 23:05:47 29.354- 29.394
ESTCUBE 1 26 Mar 23:00:36 23:04:15 25° 66° (ENE) 23:07:55 437.505/2401.250
AO-85 26 Mar 23:14:24 23:17:40 21° 318° (NW) 23:20:49 145.980
PRISM 26 Mar 23:16:57 23:21:07 71° 286° (WNW) 23:25:15 437.425
SPROUT 26 Mar 23:21:27 23:22:54 12° 60° (ENE) 23:24:22 437.525
LO-87 26 Mar 23:25:23 23:28:58 82° 76° (ENE) 23:32:37 145.935 - 145.965
DELFI C3 26 Mar 23:31:20 23:32:40 11° 271° (W) 23:34:02 145.870
FO-29 26 Mar 23:37:52 23:43:47 52° 99° (E) 23:49:05 435.910
BEESAT 3 26 Mar 23:49:20 23:53:13 57° 308° (NW) 23:57:09 437.485
DX 1 26 Mar 23:50:50 23:52:33 12° 59° (ENE) 23:54:16 434.975-435.025
Tancredo 1 26 Mar 23:55:54 23:58:33 23° 351° (N) 00:01:12 437.200
ISS 26 Mar 23:56:34 23:59:22 25° 350° (N) 00:02:09 437.550
TIGRISAT 26 Mar 23:58:48 00:03:09 55° 288° (WNW) 00:07:21 435.000
AIST 2D 27 Mar 00:04:31 00:07:24 24° 95° (E) 00:10:17 435.315
BEESAT 2 27 Mar 00:05:15 00:09:13 87° 126° (SE) 00:13:16 435.950
UNISAT 6 27 Mar 00:09:11 00:13:21 40° 290° (WNW) 00:17:24 437.425
VELOX 1 27 Mar 00:11:36 00:15:45 42° 70° (ENE) 00:19:58 145.980
SO-50 27 Mar 00:20:51 00:25:20 72° 238° (WSW) 00:29:48 436.795
50 SAT 27 Mar 00:20:59 00:23:58 28° 70° (ENE) 00:26:59 437.505
UKube-1 27 Mar 00:28:44 00:31:56 21° 64° (ENE) 00:35:08 .
NANOSAT C BR1 27 Mar 00:31:34 00:35:12 27° 95° (E) 00:38:48 145.865
EO-79 27 Mar 00:36:09 00:40:00 33° 97° (E) 00:43:49 145.935-145.965
ESTCUBE 1 27 Mar 00:36:50 00:40:54 34° 263° (W) 00:45:00 437.505/2401.250
SPROUT 27 Mar 00:53:52 00:58:10 81° 257° (WSW) 01:02:30 437.525
RS-15 27 Mar 00:56:16 01:04:28 22° 262° (W) 01:12:28 29.354- 29.394
POLYITAN 1 27 Mar 01:04:07 01:08:21 69° 101° (E) 01:12:33 437.675
QB50P2 27 Mar 01:08:45 01:13:01 83° 105° (ESE) 01:17:14 145.880/145.840
DUCHIFAT 1 27 Mar 01:20:30 01:24:45 86° 103° (ESE) 01:28:57 145.980
FO-29 27 Mar 01:23:35 01:28:26 25° 300° (WNW) 01:32:54 435.910
DX 1 27 Mar 01:23:45 01:28:06 79° 257° (WSW) 01:32:29 434.975-435.025
Oscar 19 27 Mar 01:30:28 01:32:55 13° 89° (E) 01:35:22 437.125/150
BEESAT 3 27 Mar 01:30:49 01:31:42 11° 329° (NNW) 01:32:34 437.485
Tancredo 1 27 Mar 01:32:40 01:35:22 25° 11° (NNE) 01:38:05 437.200
ISS 27 Mar 01:33:44 01:36:32 25° 10° (N) 01:39:20 437.550
BUGSAT 1 27 Mar 01:35:38 01:39:37 41° 98° (E) 01:43:31 437.445
AIST 2D 27 Mar 01:37:49 01:40:32 21° 291° (WNW) 01:43:14 435.315
BEESAT 2 27 Mar 01:45:16 01:47:34 15° 324° (NW) 01:49:53 435.950
Gurwin Techsat 1B 27 Mar 01:48:03 01:49:27 11° 87° (E) 01:50:51 435.225
VELOX 1 27 Mar 01:49:11 01:52:24 20° 267° (W) 01:55:39 145.980
50 SAT 27 Mar 01:54:39 01:57:03 18° 266° (W) 01:59:28 437.505
UKube-1 27 Mar 02:03:38 02:07:41 41° 261° (W) 02:11:48 .
NANOSAT C BR1 27 Mar 02:07:15 02:10:52 28° 293° (WNW) 02:14:28 145.865
EO-79 27 Mar 02:12:13 02:15:37 24° 294° (WNW) 02:18:59 145.935-145.965
BEESAT 27 Mar 02:16:11 02:19:57 24° 64° (ENE) 02:23:44 436.000
MOZHAYETS 4 27 Mar 02:31:56 02:34:13 14° 60° (ENE) 02:36:29
ITUPSAT 1 27 Mar 02:32:05 02:36:19 32° 67° (ENE) 02:40:33 437.325
POLYITAN 1 27 Mar 02:41:40 02:43:35 13° 299° (WNW) 02:45:30 437.675
QB50P2 27 Mar 02:47:02 02:48:08 11° 301° (WNW) 02:49:14 145.880/145.840
DUCHIFAT 1 27 Mar 02:58:58 02:59:45 10° 301° (WNW) 03:00:32 145.980
O/OREOS (USA 219) 27 Mar 02:59:19 03:03:52 55° 63° (ENE) 03:08:23 437.305
Oscar 19 27 Mar 03:07:39 03:12:51 81° 286° (WNW) 03:18:02 437.125/150
Tancredo 1 27 Mar 03:08:39 03:11:51 81° 30° (NNE) 03:15:03 437.200
ISS 27 Mar 03:10:05 03:13:23 75° 30° (NNE) 03:16:41 437.550
BUGSAT 1 27 Mar 03:11:42 03:14:41 19° 296° (WNW) 03:17:37 437.445
ITAMSAT 1 27 Mar 03:18:21 03:20:34 13° 88° (E) 03:22:46 435.822/435.867
Gurwin Techsat 1B 27 Mar 03:24:49 03:30:11 84° 104° (ESE) 03:35:30 435.225
KKS-1 27 Mar 03:46:22 03:49:20 18° 62° (ENE) 03:52:20 437.445
BEESAT 27 Mar 03:52:57 03:57:29 42° 261° (W) 04:02:03 436.000
AO-7 27 Mar 03:59:48 04:06:54 31° 95° (E) 04:13:58 .
MOZHAYETS 4 27 Mar 04:06:11 04:10:47 75° 258° (WSW) 04:15:23
ITUPSAT 1 27 Mar 04:09:53 04:14:06 30° 264° (W) 04:18:20 437.325
STARS 27 Mar 04:21:20 04:24:21 18° 63° (ENE) 04:27:23 437.465
AO-85 27 Mar 04:23:41 04:25:03 11° 33° (NNE) 04:26:26 145.980
O/OREOS (USA 219) 27 Mar 04:39:55 04:42:48 17° 260° (W) 04:45:41 437.305
Tancredo 1 27 Mar 04:45:49 04:47:35 14° 227° (SW) 04:49:22 437.200
ISS 27 Mar 04:47:23 04:49:30 16° 226° (SW) 04:51:37 437.550
Oscar 19 27 Mar 04:49:19 04:51:19 12° 304° (NW) 04:53:21 437.125/150
ITAMSAT 1 27 Mar 04:55:28 05:00:42 84° 286° (WNW) 05:05:52 435.822/435.867
CUBESAT XI-V 27 Mar 04:59:29 05:04:02 67° 74° (ENE) 05:08:37 437.345
Gurwin Techsat 1B 27 Mar 05:06:25 05:09:25 15° 302° (WNW) 05:12:24 435.225
KKS-1 27 Mar 05:21:08 05:25:30 53° 260° (W) 05:29:54 437.445
